Regional Weather Roundup
Issued by NWS Upton, NY

Current Version | Previous Version | Graphics & Text | Print | Product List | Glossary On
Versions: 1 2 3 4 5 6 7 8 9 10 11 12 13 14 15 16 17 18 19 20 21 22 23 24 25 26 27 28 29 30 31 32 33 34 35 36 37 38 39 40 41 42 43 44 45 46 47 48 49 50
000
ASUS41 KOKX 020905
RWROKX

REGIONAL WEATHER ROUNDUP
NATIONAL WEATHER SERVICE NEW YORK NY
500 AM EDT THU OCT 02 2014

NOTE: "FAIR" INDICATES FEW OR NO CLOUDS BELOW 12,000 FEET WITH NO
SIGNIFICANT WEATHER AND/OR OBSTRUCTIONS TO VISIBILITY.

NYZ071-072-176-178-NJZ106-104-021000-
NEW YORK CITY METRO AREA


CITY           SKY/WX    TMP DP  RH WIND       PRES   REMARKS
CENTRAL PARK   CLOUDY    61  53  75 VRB6      30.12R
LAGUARDIA APRT CLOUDY    61  55  81 NE13      30.09R
KENNEDY INTL   CLOUDY    61  55  81 N13       30.09R
NEWARK/LIBERTY CLOUDY    60  57  89 N10       30.10R
BRNX BOT. GARD   N/A     59  54  82 W1        30.11S
TETERBORO      LGT RAIN  61  55  81 N3        30.09R
$$

NYZ177-179-078>081-021000-
LONG ISLAND NEW YORK

CITY           SKY/WX    TMP DP  RH WIND       PRES   REMARKS
FARMINGDALE    CLOUDY    60  56  86 N7        30.08R
ISLIP          CLOUDY    60  56  86 N8        30.05R
SHIRLEY        CLOUDY    59  56  89 N6        30.07S
WESTHAMPTON    CLOUDY    60  55  83 N10       30.07S
MONTAUK POINT    N/A     59  58  96 NE12G22   30.06S
$$

NYZ052-065-067-021000-
HUDSON VALLEY

CITY           SKY/WX    TMP DP  RH WIND       PRES   REMARKS
WHITE PLAINS   DRIZZLE   58  54  86 N6        30.10R
NEWBURGH       NOT AVBL
MONTGOMERY     CLOUDY    59  56  89 NE7       30.11S
POUGHKEEPSIE   CLOUDY    60  58  92 CALM      30.10S
ALBANY         CLOUDY    59  56  89 CALM      30.13S
$$

NJZ001-105-106-008-010-013-015-019>022-104-021000-
NEW JERSEY

CITY           SKY/WX    TMP DP  RH WIND       PRES   REMARKS
NEWARK/LIBERTY CLOUDY    60  57  89 N10       30.10R
TETERBORO      LGT RAIN  61  55  81 N3        30.09R
CALDWELL       CLOUDY    60  54  80 NE6       30.11R
MORRISTOWN     CLOUDY    63  55  77 N5        30.10R
SOMERVILLE     CLOUDY    62  56  80 N3        30.08R
LINDEN         CLOUDY    65  60  83 NE9       30.11R
SUSSEX         CLOUDY    61  57  87 N3        30.11S
ANDOVER          N/A     58  56  93 CALM      30.11R
TRENTON        CLOUDY    60  56  86 N5        30.09R
MILLVILLE      CLEAR     56  55  97 N5        30.08R
ATLANTIC CITY  CLOUDY    60  58  92 N10       30.07R
WRIGHTSTOWN    MOCLDY    59  59  99 N5        30.07R
TOMS RIVER     CLOUDY    59  57  94 CALM      30.09R
BELMAR         CLOUDY    59  54  82 N5        30.08R
$$

PAZ047>061-062-071-021000-
EASTERN PENNSYLVANIA

CITY           SKY/WX    TMP DP  RH WIND       PRES   REMARKS
PHILADELPHIA   CLOUDY    64  56  75 NE12      30.09R
ALLENTOWN      CLOUDY    61  56  83 NE5       30.10S
SCRANTON       CLOUDY    57  54  89 CALM      30.12R
$$

CTZ002-004>006-009-010-012-RIZ004-006-007-MAZ004-011-015-021000-
SOUTHERN NEW ENGLAND
 IN CT

CITY           SKY/WX    TMP DP  RH WIND       PRES   REMARKS
BRADLEY INTL   CLOUDY    58  55  90 N8        30.10R
HARTFORD       CLOUDY    58  55  90 VRB7      30.10R
DANBURY        CLOUDY    57  54  89 CALM      30.12R
WTRBRY/OXFORD  CLOUDY    55  52  88 N9        30.11S
BRIDGEPORT     CLOUDY    59  56  89 N12       30.09R
MERIDEN        CLOUDY    58  55  90 N3        30.10R
NEW HAVEN      CLOUDY    60  55  83 N8        30.08S
CHESTER        CLOUDY    57  54  88 N8        30.09R
GROTON         LGT RAIN  56  56 100 N8        30.06S
WILLIMANTIC    CLOUDY    57  54  89 N6        30.10R

 IN RI

CITY           SKY/WX    TMP DP  RH WIND       PRES   REMARKS
PROVIDENCE     LGT RAIN  57  56  96 N15       30.09R
BLOCK ISLAND   CLOUDY    59  55  88 N16G23    30.05R
WESTERLY       LGT RAIN  58  56  93 N7        30.07R

 IN MA

CITY           SKY/WX    TMP DP  RH WIND       PRES   REMARKS
BOSTON         CLOUDY    55  54  96 NE22      30.13R
WORCESTER      LGT RAIN  52  52 100 NE10G18   30.12R
WESTFIELD      CLOUDY    57  54  89 N7        30.12R
PROVINCETOWN   CLOUDY    59  55  88 NE14G24   30.08R
NANTUCKET      CLOUDY    61  59  93 NE17      30.00R
$$

ANZ330-335-338-340-345-350-353-355-021000-
COASTAL MARINE OBSERVATIONS


STATION/POSITION TIME  SKY/WX   TEMP    WIND        PRES    VSBY  WAVE
                                AIR SEA DIR/SP/G                  HT/PER
                 (UTC)          (F)     (DEG/KT/KT) (MB)    (MI)  (FT/S)
NY HARB ENTRANCE NOT AVBL
4S FIRE IS       0900               67                N/A           4/ 7
20S FIRE ISLAND  0900            63 67   30/ 17/ 21 1017.0          6/ 7
23SW MTP         0900                                 N/A           7/ 7
HUDSON CANYON    0900            66 69   20/ 21/ 25 1015.1
EXECUTION ROCKS  0900            62 68   30/ 14/ 19   N/A
WESTERN LI SOUND 0900            61      40/ 12/ 16   N/A           2/ 5
CENTRAL LI SOUND 0800            60 68   40/ 14/ 17   N/A           2/ 3
EASTERN LI SOUND 0800            60 65   30/ 12/ 16   N/A
ROBBINS REEF     0900            62      30/ 13/ 16 1017.5
$$


>>>>>>>>>>>>>>>>>>>>>>>>>>>> KEY <<<<<<<<<<<<<<<<<<<<<<<<<<<
>                                                          <
>     SKY/WX - SKY CONDITION/PRESENT WEATHER               <
>     TMP    - TEMPERATURE IN FAHRENHEIT                   <
>     DP     - DEWPOINT IN FAHRENHEIT                      <
>     RH     - RELATIVE HUMIDITY IN PERCENT                <
>     WIND   - DIRECTION AND SPEED IN MPH                  <
>     PRES   - MEAN SEA LEVEL PRESSURE IN INCHES OF HG     <
>     WCI    - WIND CHILL INDEX                            <
>     VSB    - VISIBILITY IN MILES                         <
>     HX     - HEAT INDEX                                  <
>     TC     - TEMPERATURE IN CELSIUS                      <
>     VRB    - VARIABLE WIND DIRECTION                     <
>                                                          <
>>>>>>>>>>>>>>>>>>>>>>>>>>>> KEY <<<<<<<<<<<<<<<<<<<<<<<<<<<




USA.gov is the U.S. government's official web portal to all federal, state and local government web resources and services.